This is the latest recevied weather packets stored in our database for station/object SP4MAZ-13. If no packets are shown the sender has not sent any weather packets the latest 10 day(s).
| Time | Temp. | Humidity | Pressure | Rain* | Wind** | Luminosity | Snow |
|---|---|---|---|---|---|---|---|
| 1777838905 | 9.44° C | 67% | 2147.4 hPa | - | - | - | - |
| 1777838601 | 9.44° C | 66% | 2147.4 hPa | - | - | - | - |
| 1777838297 | 9.44° C | 67% | 2147.4 hPa | - | - | - | - |
| 1777837993 | 10° C | 65% | 2147.4 hPa | - | - | - | - |
| 1777837692 | 10° C | 67% | 2147.4 hPa | - | - | - | - |
| 1777837389 | 10° C | 64% | 2147.4 hPa | - | - | - | - |
| 1777837086 | 10° C | 65% | 2147.4 hPa | - | - | - | - |
| 1777836782 | 10° C | 64% | 2147.4 hPa | - | - | - | - |
| 1777836479 | 10.56° C | 63% | 2147.4 hPa | - | - | - | - |
| 1777836175 | 10.56° C | 62% | 2147.4 hPa | - | - | - | - |
| 1777835872 | 11.11° C | 60% | 2147.4 hPa | - | - | - | - |
| 1777835569 | 11.11° C | 62% | 2147.4 hPa | - | - | - | - |
| 1777835265 | 11.11° C | 60% | 2147.4 hPa | - | - | - | - |
| 1777834961 | 11.11° C | 60% | 2147.4 hPa | - | - | - | - |
| 1777834658 | 11.67° C | 60% | 2147.4 hPa | - | - | - | - |
| 1777834357 | 11.67° C | 59% | 2147.4 hPa | - | - | - | - |
| 1777834054 | 11.67° C | 58% | 2147.4 hPa | - | - | - | - |
| 1777833751 | 12.22° C | 59% | 2147.4 hPa | - | - | - | - |
| 1777833447 | 12.22° C | 58% | 2147.4 hPa | - | - | - | - |
| 1777833143 | 12.78° C | 57% | 2147.4 hPa | - | - | - | - |
| 1777832840 | 13.33° C | 55% | 2147.4 hPa | - | - | - | - |
| 1777832536 | 13.33° C | 52% | 2147.4 hPa | - | - | - | - |
| 1777832233 | 14.44° C | 51% | 2147.4 hPa | - | - | - | - |
| 1777831930 | 15° C | 48% | 2147.4 hPa | - | - | - | - |
| 1777831626 | 15.56° C | 45% | 2147.4 hPa | - | - | - | - |
* Rain since midnight (hover to see other rain measurements)
** Current wind speed in m/s (hover to see current wind gust speed)